[Date Prev][Date Next][Thread Prev][Thread Next][Date Index][Thread Index]

[jamsat-news:1620] jas2info #250



========================   最新情報   ==============================

        Last updated :12NOV2001  20:20(JST)   #250

==================================================================
   
  1)アマチュア通信衛星情報、FOシリーズの軌道要素、テレメトリ、QSOの
   状況等をまとめてみました.
   
   FO−29の2001年11月12日(月)の19:37(JST)のパスでは
  JARLのホームページのとうりアナログ運用でした。 今日までの観測した
  テレメトリーと最終の分析結果を報告しておきます。

AS25869C  12Nov2001
19:37-19:54(JST)
FREQ.  435.803-.786MHz
                                             8A 8A 89 95 6A 8F 8F 91 8F 8F 
HI HI AE 07 88 55 00 D4 B0 DF 09 0D 56 6B 00 88 8A 89 95 73 8F 90 91 8F 8F 
HI HI AE 07 88 55 00 D4 B0 DF 09 0D 4E 7C 00 88 8A 89 94 6B 8F 90 91 8F 8F 
HI HI AE 07 88 55 00 D4 B0 DF 09 0D 49 8B 00 87 89 88 94 61 8F 90 91 8F 8F 
HI HI AE 07 88 55 00 D4 B0 DF 09 0D 48 98 00 88 89 88 94 75 8F 90 92 90 8F 
HI HI AE 07 88 55 00 D4 B0 DF 09 0D 4C A2 00 87 89 88 94 70 90 90 92 90 8F 
HI HI AE 07 88 55 00 D4 B0 DF 09 0D 53 A7 00 87 89 88 94 88 90 90 92 90 8F 
HI HI AE 07 88 55 00 D4 B0 DF 09 0D 5D A8 00 87 88 87 93 7E 90 91 92 90 8F 
HI HI AE 07 88 55 00 D4 B0 DF 09 0D 69 A6 00 87 88 87 93 7F 90 91 92 91 8F 
HI HI AE 07 88 55 00 D4 B0 DF 09 0D 75 A1 04 85 88 87 93 6C 90 91 93 91 8F 
HI HI AE 07 88 55 00 D4 B0 DF 09 0D 80 9A 1D 78 89 88 94 70 91 91 93 91 8F 
HI HI AE 07 88 55 00 D4 B0 DF 09 0D 8A 94 65 55 8D 8A 97 77 91 91 93 91 8F 
HI HI AE 07 88 55 00 D4 B0 DF 09 0D 90 8C 64 55 8E 8C 99 82 91 92 93 92 8F 
HI HI AE 07 88 55 00 D4 B0 DF 09 0D 92 85 62 56 8F 8D 9A 6B 91 92 93 92 8F 
HI HI AE 07 88 55 00 D4 B0 DF 09 0D 93 80 62 56 90 8E 5B 76 92 92 94 92 8F 
HI HI AE 07 88 55 00 D4 B0 DF 09 0D 8F 7D 66 54 91 8F 9C 7D 92 92 94 92 8F 
HI HI AE 07 88 55 00 D4 B0 DF 09 0D 88 7A 6A 5F 91 8E B0 90 92 93 94 92 8F 
HI HI AE C7 88 S5 00 D4 B0 DF 09 0D 7E 7C 6E 5F 91 8E B0 67 92 92 94 92 8F 
HI HI AE C7 88 55 00 D4 B0 DF 09 0D 73 7F 71 5F 90 8F B0 6E 92 93 94 93 8F 
HI HI AE C7 88 55 00 D4 B0 DF 09 0D 67 83 72 5F 90 8F B0 90 92 92 94 93 8F 
HI HI AE C7 88 55 00 D4 B0 DF 09 0D 5C 87 72 5F 91 8F B0 7E 92 92 94 93 8F 
HI HI AE C7 88 55 00 D4 B0 DF 09 0D 53 8B 73 5F 91 8F B0 79 92 92 94 93 8F
 
AS25842C  10Nov2001
18:07-18:11(JST)
FREQ. 435.790-.787MHz
                                                   8E B0 66 94 90 91 93 8E 
HI HI AE C7 88 55 00 D4 B5 F1 09 75 4D 8E 70 5F 90 8E B0 8D 94 90 91 94 8E 
HI HI AE C7 88 55 00 D4 B5 F1 TJ975 49 87 70 5F 91 8E B0 83 94 90 91 94 8E 
HI HI AE C7 88 55 00 D4 B5 F1 09 75 45 80 71 5F 91 8F B0 77 94 90 91 94 8E 
HI HI AE C7 88 55 00 D4 B5 F1 097SE 43 78 71 5F 91 8F B0 76 94 90 82 94 8E 
 
AS25829C   09Nov2001
19:01-19:08(JST)
FREQ. 435.790-.787MHz

HI HI AE 07 88 55 00 D4 00 00 09 00 4C 74 46 64 8D 8B 97 71 91 91 92 91 8E 
HI HI AE 07 88 55 00 D4 00 00 09 00 48 75 47 64 8D 8B 98 7B 91 91 93 92 8E 
HI HI AE 07 88 55 00 D4 00 00 09 00 45 78 45 65 8D 8B 98 65 91 91 93 92 8E 
HI HI AE 07 88 55 00 D4 00 00 09 00 44 7B 43 66 8D 8B 98 5A 91 91 93 92 8E 
HI HI AE 07 88 55 00 D4 00 00 09 00 44 7F 46 64 8D 8B 98 69 91 91 93 92 8E 
HI HI AE 07 88 55 00 D4 00 00 09 00 46 84 46 66 8E 8C 98 74 92 91 93 92 8E 
HI HI AE 07 88 55 00 D4 00 00 09 00 49 89 49 62 8E 8C 98 62 92 91 93 92 8E 
HI HI AE 07 88 55 00 D4 00 00 09 00 4D 8F 4B 62 8E 8C 99 7D 92 91 94 93 8E 
HI HI AE 07 88 55 00 D4 00 00 09 00 53 94 4F 60 8F 8D 9A 60 92 92 94 93 8E 

AS25802C   07NOV2001
19:01-19:13(JST)
FREQ.  435.797-.786MHz

HI HI AE 07 88 55 00 D4 8B 2F 09 6F 68 3D 01 87 88 87 93 78 91 8A 90 94 8D 
HI HI AE 07 88 55 00 D4 8B 2F 09 6F 69 3C 07 83 88 88 93 93 91 8A 90 94 8D 
HI HI AE 07 88 55 00 D4 8B 2F 09 6F 69 3C 40 65 8B 89 95 7C 91 8B 91 94 8D 
HI HI AE 07 88 55 00 D4 8B 2F 09 6F 68 3C 65 54 8D 8B 98 6A 91 8B 91 94 8D 
HI HI AE O7 88 55 00 D4 8B 2F 09 6F 66 3B 5F 57 8E 8C 99 7D 91 8B 91 94 8D 
HI HI AE 07 88 55 00 D4 8A C4 09 65 63 3B 5E 58 8F 8D 9A 96 91 8B 91 94 8D 
HI HI AE 07 88 55 00 D4 8A C4 09 65 5F 3C 5E 58 90 8E 9B 55 91 8B 91 94 8D 
HI HI AE 07 88 55 00 D4 8A C4 09 65 5B 3F 5E 58 90 8E 9B 85 92 8C 91 95 8D 
HI HI AE 07 88 55 00 D4 8A C4 09 65 56 43 5B 59 91 8E 9C 75 92 8C 92 95 8D 
HI HI AE 07 88 55 00 D4 8A C4 09 65 50 49 59 5F 90 8E B0 80 92 8C 92 95 8D 
HI HI AE C7 88 55 00 D4 8A C4 09 65 4C 51 55 5F 91 8E AF 78 92 8C 92 95 8D 
HI HI AE C7 88 55 00 D4 8A C4 09 65 49 59 51 60 90 8E AC 74 92 8C 92 95 8D 
HI HI AE C7 88 55 00 D4 8A C4 09 65 47 63 4E 62 90 8E A8 77 92 8C 92 95 8D 
HI HI AE C7 88 55 00 D4 8A C4 09 65 47 6D 4D 62 90 8E A8 98 93 8C 92 96 8D 
HI HI AE C7 88 55 00 D4 8A C4 99 65 48 78 4F 61 90 8E AA 77 93 8C 93 96 8D 
HI HI AE C7 88 55 00 D4 8A C4 09 65 4A 80 4B 63 90 8E A6 71 93 8C 93 96 8D  

AS25788C   06NOV2001
18:05-18:20(JST)
FREQ.  435.800-.789MHz

HI HI AE 07 88 55 00 D4 50 A7 09 02 62 49 00 89 8A 89 95 8A 8D 86 91 95 8D 
HI HI AE 07 88 55 00 D4 50 A7 09 02 5B 4E 00 89 8A 89 94 82 8D 86 91 94 8D 
HI HI AE 07 88 55 00 D4 50 A7 09 02 55 55 00 88 89 88 94 58 8D 86 91 95 8D 
HI HI AE 07 88 55 00 D4 50 A7 09 02 50 5B 00 89 89 88 94 7A 8D 87 91 95 8D 
HI HI AE 07 88 55 10 D4 50 A7 09 02 4B 62 00 89 89 88 94 7A 8E 87 91 95 8D 
HI HI AE 07 88 55 00 D4 50 A7 09 02 48 68 00 89 88 87 93 7D 8E 87 91 95 8D 
HI HI AE 07 88 55 00 D4 50 A7 09 02 46 6F 01 88 88 87 93 71 8E 86 92 95 8D 
HI HI AE 07 88 55 00 D4 50 A7 09 02 45 75 07 84 89 87 93 6F 8E 88 92 95 8D 
HI HI AE 07 88 55 00 D4 50 A7 09 02 44 7B 2F 6E 8A 89 95 69 8E 88 92 95 8D 
HI HI AE 07 78 55 00 D4 50 A7 09 02 44 81 66 54 8D 8B 98 73 8F 89 92 95 8D 
HI HI AE 07 88 55 00 D4 50 A7 09 02 45 86 6B 50 9O 8F 9A 81 8F 89 92 95 8D 
HI HI AE 07 88 55 00 D4 50 A7 09 02 47 89 6E 50 90 8E 95 74 8F 89 92 95 8D 
HI HI Ae 07 88 55 00 D4 50 A7 09  2 49 8C 70 4F 92 8F 9D 74 8F 8A 93 96 8D 
HI HI AE C7 88 55 00 D4 50 A7 09 02 4B 8D 70 5F 91 8E B0 82 8F 8A 93 96 8D  
HI HI AE C7 88 55 00 D4 50 A7 09 02 4E 8E 71 5F 90 8E B0 64 90 8A 93 96 8D 
HI HI AE C7 88 55 00 D4 50 A7 09 02 52 8F 72 5F 91 8E B0 73 90 8A 93 96 8D 
HI HI AE C7 88 55 00 D4 50 A7 09 02 55 8F 72 5F 91 8F B0 8D 90 8A 93 96 8D 
HI HI AE C7 88 55 00 D4 50 A7 09 02 59 8E 72 5F 91 8F B0 8D 90 8A 93 96 8D 
HI HI AE C7 88 55 00 D4 50 A7 09 02 5D 8C 71 5F 91 8F B0 8D 90 8A 93 96 8D 
 
------------------------ FO-29の軌道要素 ------------------------------        
 
  ■ 軌道要素1:「jamsat−keps:1050」より         
          SB KEPS @ AMSAT  $ORB01313.N
          2Line Orbital Elements 01313.AMSAT

HR AMSAT ORBITAL ELEMENTS FOR AMATEUR SATELLITES IN NASA FORMAT
FROM WA5QGD FORT WORTH,TX November 9, 2001
SEND SUBSCRIBE/UNSUBSCRIBE TO majordomo@amsat.org ONLY
BID: ORB01313.N

 DECODE 2-LINE ELSETS WITH THE FOLLOWING KEY:
 1 AAAAAU 00  0  0 BBBBB.BBBBBBBB  .CCCCCCCC  00000-0  00000-0 0  DDDZ
 2 AAAAA EEE.EEEE FFF.FFFF GGGGGGG HHH.HHHH III.IIII JJ.JJJJJJJJKKKKKZ
 KEY: A-CATALOGNUM B-EPOCHTIME C-DECAY D-ELSETNUM E-INCLINATION F-RAAN
 G-ECCENTRICITY H-ARGPERIGEE I-MNANOM J-MNMOTION K-ORBITNUM Z-CHECKSUM

FO-29
1 24278U 96046B   01313.16343662 -.00000010  00000-0  26913-4 0  4551
2 24278  98.5229 158.5662 0351023 346.1698  13.0007 13.52793057258248

 ■ 軌道要素2:「jamsat−keps:1049」より
        SB KEPS @ AMSAT  $ORB01313.O
        Orbital Elements  01313.OSCAR

HR AMSAT ORBITAL ELEMENTS FOR OSCAR SATELLITES
FROM WA5QGD FORT WORTH,TX November 9, 2001
SEND SUBSCRIBE/UNSUBSCRIBE TO majordomo@amsat.org ONLY
BID: ORB01313.O
TO ALL RADIO AMATEURS BT

Satellite: FO-29
Catalog number: 24278
Epoch time:      01313.16343662
Element set:     455
Inclination:       98.5229 deg
RA of node:       158.5662 deg
Eccentricity:    0.0351023
Arg of perigee:   346.1698 deg
Mean anomaly:      13.0007 deg
Mean motion:   13.52793057 rev/day
Decay rate:       -1.0e-07 rev/day^2
Epoch rev:           25824
Checksum:              293
-------------------  FO-29(JAS-2)のテレメトリに関する情報  ---------------------- 
 
2)上記11月12日(月)のテレメトリの最終行を分析しておきます.

AS25869C  12Nov2001
19:37-19:54(JST)
FREQ.  435.803-.786MHz
                                             
HI HI AE C7 88 55 00 D4 B0 DF 09 0D 53 8B 73 5F 91 8F B0 79 92 92 94 93 8F

テレメトリ   内 容         換算算値 単 位
3C	磁気センサーZ軸=	40686.3	[nT]
3D	磁気センサX軸	=	68137.2	[nT]
4A	太陽電池発生電流=	 1127.5	[mA]
4B	B充放電電流	=	 -138.0	[mA]
4C	B端子電圧	=	  15.6	[V]
4D	B中間端子電圧	=	    6.9	[V]
5A	バス電圧	=	   17.3	[V]
5B	JTA送信電力	=	  688.4	[mW]
5C 	構体温度1	=	   25.2	[℃]
5D	構体温度2	=	   25.2	[℃]
6A	構体温度3	=	   24.4	[℃]
6B	構体温度4	=	   24.8	[℃]
6C	Bセル温度	=	   26.3	[℃]

 ========================== FO-29(ふじ3号)のQSO情報等 ======================
   
 3)[jamsat-bb:

 ===============================================================================
   4)JARL のホームページに運用予定が記載されていましたのでご紹介します.
       ( http://www.jarl.or.jp/Japanese/3_Fuji/new/uy.htm )
       
      ふじ3号(JAS−2)の運用 

        *** 運用予定について ***

 10月1日(月) 〜 12月3日(月)アナログ系運用 

  *なお,運用予定は都合により,変更することがありますので,あらかじめご了承願います。

 照会先 : lab@jarl.or.jp

 最新の情報はテレホンサービス(03−3942−1000)をお聞きください。  
 以後の運用につきましては平成13年12月上旬にお知らせいたします。 
     
-----------------------    FO−20(JAS-1b)道要素   -------------------------
  5)
  ■ 軌道要素1 :出典はFO-29「ふじ3号」に同じ.
  
FO-20
1 20480U 90013C   01312.63513557  .00000037  00000-0  15900-3 0 03654
2 20480 099.0407 353.9503 0540647 342.1531 016.1208 12.83301407550623
 
  ■ 軌道要素2 :出典はFO−29「ふじ3号」に同じ.
               
Satellite: FO-20
Catalog number: 20480
Epoch time:      01312.63513557
Element set:    0365
Inclination:      099.0407 deg
RA of node:       353.9503 deg
Eccentricity:    0.0540647
Arg of perigee:   342.1531 deg
Mean anomaly:     016.1208 deg
Mean motion:   12.83301407 rev/day
Decay rate:        3.7e-07 rev/day^2
Epoch rev:           55062
Checksum:              260

 --------------------------------------------------------------------------------
 
         ■ ふじ2号/FO−20/JAS-1b ■      
            
          「ふじ2号」 現況                                                                                  
             
   JAS-1b(ふじ2号)のCWテレメトリ信号に,1997年10月12日12時(JST)の
 日本上空通過時,3桁の数字が繰り返されるはずが3個の長音の繰り返しとなっているという
 異常が発見されました。この不具合は次の通過時からは回復していましたが13日15時20分の
 通過時に再び観測されました。現在はA0の送信が続いています。衛星のアナログ系中継モード
 動作は異常が無く,正常時のテレメトリ内容からは衛星の動作に異常は認められません。従って,
 直ちに衛星のミッションに影響することは無いと予想されますので,当面はアナログ系中継
 モードを継続します。衛星は既に打ち上げてから7年8ヶ月を経ておりますので,今後は監視を
 強化する予定です。アマチュア各位のレポートをお待ちします。
 -------------------------------------------------------------------------------- 
  1997年10月14日 00時35分 確認のテレメトリ音 151 KB (A0) 
  1997年10月14日 11時10分 確認のテレメトリ音 216 KB (異常キーイング) 

  以上 JARLのホ−ムページの http://www.jarl.or.jp/Japanese/3_Fuji/new/fuji.htm

===================== FO-20 ふじ2号 のテレメトリ観測結果 ====================

  10月27日(土)11:33(JST)の観測結果ではテレメトリは、以前観測した単一周波数の
ドップラー効果で周波数がずれていくのみの状態でした。
                                         
   =============   JAS-2 (ふじ3号)と現在までの情報   ===========
  
  A.電話によるふじ3号の運用情報
      社団法人日本アマチュア連盟によるサービス
           TEL .   03− 3942 − 1000
  B.アマチュア無線FAXサービス
      JARLによるふじ3号の軌道情報(オービットカレンダー)
         FAX No.  03− 3233 −0055
  C.WWWブラウザで情報を簡単に見れる人のためにJAS−2
     ふじ3号の衛星としての運用されるまでの名前)の概要、打ち上げ
     までの状況、運用中における状況を説明したホームページを紹介し
     ておきます.
     社団法人日本アマチュア無線連盟(JARL)のホームページ

          http://www.jarl.or.jp/Japanese/3_Fuji/jasmenu.htm
 
     宇宙開発事業団(NASDA)ホームページ 
          http://www.nasda.go.jp/
         打上げ衛星 :地球観測プラットフォーム技術衛星(ADEOS) 
                       アマチュア衛星3号(JAS-2)
          http://spaceboy.nasda.go.jp/note/eisei/j/Eis15h_j.html#Eis15h_01_j
     http://spaceboy.nasda.go.jp/note/eisei/j/Eis15i_j.html        

  D.JAMSATによる軌道情報の活用
        JAMSATのホームページまたはjamsat−kepsの軌道要素より
      衛星の軌道情報を得る.
     JAMSATホームページ
               URL    http://www.jamsat.or.jp
       上記ホームページでは各地で行われるアマチュア通信衛星に関する
      ミューティングのお知らせや世界のアマチュア衛星に関する情報が
      満載されています.
 ========================================================================  
     JAMSATのメンバーのご協力によりJH6MME(高山 秀造)が
    執筆・編集を担当しております.ご指摘の意見、疑問やこのようにしたら
    というアイデアがありましたら小さなことでもかまいませんので気軽に下
    記アドレスまでご連絡ください.jamsat−newsからjas2
    infoへの転載をJH4PHW局坂井さんに担当して頂いております.  
                  E-mail : jh6mme@jamsat.or.jp : jh4phw@jamsat.or.jp
 ===============================   END  ===============================